Regional Weather Roundup
Issued by NWS

Home | Current Version | Previous Version | Graphics & Text | Print | Product List | Glossary On
Versions: 1 2 3 4 5 6 7 8 9 10 11 12 13 14 15 16 17 18 19 20 21 22 23 24 25 26 27 28 29 30 31 32 33 34 35 36 37 38 39 40 41 42 43 44 45 46 47 48 49 50
000
ASUS43 KBIS 050901
RWRND

NORTH DAKOTA REGIONAL WEATHER ROUNDUP
NATIONAL WEATHER SERVICE BISMARCK ND
300 AM CST THU MAR 05 2015

NOTE: "FAIR" INDICATES FEW OR NO CLOUDS BELOW 12,000 FEET WITH NO
SIGNIFICANT WEATHER AND/OR OBSTRUCTIONS TO VISIBILITY.


NDZ001>003-009>011-017-051000-
NORTHWEST NORTH DAKOTA

CITY           SKY/WX    TMP DP  RH WIND       PRES   REMARKS
WILLISTON      PTCLDY     1  -8  66 S7        30.15F WCI -12
MINOT          MOCLDY    -2 -12  62 S8        30.20F WCI -17
MINOT AFB      MOCLDY    -6 -13  74 S7        30.20F WCI -21
$$

NDZ018>021-031>035-040>046-051000-
SOUTHWEST NORTH DAKOTA

CITY           SKY/WX    TMP DP  RH WIND       PRES   REMARKS
BISMARCK       PTCLDY    -7 -12  79 E5        30.30F WCI -18
DICKINSON      CLEAR      3  -5  69 S13       30.12F WCI -14
GARRISON         N/A    -10 -15  78 S3        30.21F
HETTINGER ARPT CLEAR      2  -7  66 S7        30.17F WCI -11
$$

NDZ004>008-012>016-024-026-027-054-051000-
NORTHEAST NORTH DAKOTA

CITY           SKY/WX    TMP DP  RH WIND       PRES   REMARKS
GRAND FORKS    CLEAR    -13 -18  78 S8        30.39F WCI -30
GRND FRKS AFB  FAIR     -11 -19  68 SW6       30.37F WCI -25
DEVILS LAKE    MOCLDY    -9 -18  64 SW7       30.29F WCI -24
$$

NDZ022-023-025-028>030-036>039-047>053-051000-
SOUTHEAST NORTH DAKOTA

CITY           SKY/WX    TMP DP  RH WIND       PRES   REMARKS
FARGO          CLEAR     -9 -16  71 SW6       30.43S WCI -22
JAMESTOWN      PTCLDY    -7 -15  68 SW3       30.33F
$$




USA.gov is the U.S. government's official web portal to all federal, state and local government web resources and services.